Regional Weather Roundup
Issued by NWS

Home | Current Version | Previous Version | Graphics & Text | Print | Product List | Glossary On
Versions: 1 2 3 4 5 6 7 8 9 10 11 12 13 14 15 16 17 18 19 20 21 22 23 24 25 26 27 28 29 30 31 32 33 34 35 36 37 38 39 40 41 42 43 44 45 46 47 48 49 50
000
ASUS43 KBIS 191720
RWRND

NORTH DAKOTA REGIONAL WEATHER ROUNDUP
NATIONAL WEATHER SERVICE BISMARCK ND
1200 PM CDT SAT APR 19 2014

NOTE: "FAIR" INDICATES FEW OR NO CLOUDS BELOW 12,000 FEET WITH NO
SIGNIFICANT WEATHER AND/OR OBSTRUCTIONS TO VISIBILITY.


NDZ001>003-009>011-017-191800-
NORTHWEST NORTH DAKOTA

CITY           SKY/WX    TMP DP  RH WIND       PRES   REMARKS
WILLISTON      PTSUNNY   48  36  63 NW20      29.90R
MINOT          CLOUDY    46  36  68 W18G31    29.83R
MINOT AFB      CLOUDY    47  40  76 W22G30    29.81R
$$

NDZ018>021-031>035-040>046-191800-
SOUTHWEST NORTH DAKOTA

CITY           SKY/WX    TMP DP  RH WIND       PRES   REMARKS
BISMARCK       SUNNY     59  29  31 W21       29.92R
DICKINSON      SUNNY     53  30  41 W24G36    29.92R
GARRISON         N/A     47  36  65 W25G33    29.88R
HETTINGER ARPT SUNNY     56  27  32 W24G32    29.97S
$$

NDZ004>008-012>016-024-026-027-054-191800-
NORTHEAST NORTH DAKOTA

CITY           SKY/WX    TMP DP  RH WIND       PRES   REMARKS
GRAND FORKS    MOSUNNY   60  37  42 W20G26    29.81R
GRND FRKS AFB  SUNNY     60  34  37 W18G25    29.81R
DEVILS LAKE    MOSUNNY   52  36  54 W23G30    29.81R
$$

NDZ022-023-025-028>030-036>039-047>053-191800-
SOUTHEAST NORTH DAKOTA

CITY           SKY/WX    TMP DP  RH WIND       PRES   REMARKS
FARGO          SUNNY     60  36  40 SW14      29.87S
JAMESTOWN      SUNNY     58  30  34 W23G29    29.87R
$$




USA.gov is the U.S. government's official web portal to all federal, state and local government web resources and services.